Weather in Boikivske

Ukraine / Donetsk Region     47˚24′39″N   38˚00′52″E
temp.,
°C
wind,
m/s
gust,
m/s
humid.,
%
clouds,
%
prec.,
mm/h
press.,
hPa
HPBL,
m
27 november, fri
fri2723:00+1˚s239425 0.0 102738
02:00+1˚ssw239524 0.0 102741
05:00+1˚s239454 0.0 102632
08:00+1˚s369665 0.0 1026176
11:00+6˚ssw587218 0.0 1026904
14:00+6˚ssw697047 0.0 1024791
17:00+5˚ssw5985100 0.0 1024457
20:00+6˚ssw4990100 0.0 1023429
28 november, sat
sat2823:00+7˚ssw51087100 0.0 1024459
02:00+5˚ssw379492 0.1 1023194
05:00+5˚s379513 0.0 1023165
08:00+5˚sse478750 0.0 1023306
11:00+7˚sse4779100 0.0 1024388
14:00+8˚sse575992 0.0 1023500
17:00+5˚se497849 0.0 1023233
20:00+5˚ese398973 0.0 1023221
29 november, sun
sun2923:00+3˚ese378384 0.0 1023160
02:00+2˚e478680 0.0 1023183
05:00+2˚ese4894100 0.0 1023208
08:00+2˚ese489786 0.0 1024274
11:00+6˚ese587790 0.0 1023369
14:00+7˚se577595 0.0 1023361
17:00+5˚ese4119076 0.0 1024305
20:00+5˚ese5119086 0.0 1024344
30 november, mon
mon3023:00+4˚ese4119588 0.0 1024302
02:00+4˚ese4119787 0.0 1024295
05:00+4˚ese6119696 0.0 1024400
08:00+4˚e6129099 0.0 1025506
11:00+7˚ese71171100 0.0 1024778
14:00+7˚e81068100 0.0 1023909
17:00+6˚e81173100 0.0 1023968
20:00+6˚e81372100 0.0 1023841
1 december, tue
tue123:00+4˚e7137480 0.0 1023751
02:00+2˚e7137566 0.0 1023653
05:00+2˚e7147410 0.0 1023668
08:00+1˚e915766 0.0 1024731
11:00+3˚e9146868 0.0 1024922
14:00+4˚e10147184 0.0 10231096
17:00+3˚e91472100 0.0 1024930
20:00+2˚e91475100 0.0 1025778